ZHONGXING-2A

Last updated on Tue Sep 22 2026 00:03:12 GMT+0000 (Coordinated Universal Time)

1 38352U 12028A 26264.65113314 -.00000297 00000+0 00000+0 0 9995 2 38352 1.6961 82.4969 0001060 149.1198 101.5800 1.00278323 52260
UTC large
Height (km)
Speed (km/s)
/
Latitude / Longitude
Inclination (degrees)
Orbital Period (minutes)
Azimuth
Elevation
Range (km)
Doppler Factor

Next 0 passes for location: London (51.5072 / 0.1276)

No passes found over London.
ZHONGXING-2A